Date String (YYYY-MM-DD hh:mm:ss) UTC,Instrument flags,Ambient pressure (hPa),Sample flow (lpm),Bypass flow (lpm),Sample temperature (°C),Ambient temperature (°C),ASC tube jacket temperature (°C),LED temperature (°C),Box temperature (°C),Sample RH (%),Span deviation,Mass concentration (μg/m³),Mass concentration (μg/m³),Mass concentration (μg/m³)
DateTimeUTC,F1_M11,P_M11,Q1_M11,Q2_M11,T1_M11,T2_M11,T3_M11,T4_M11,T5_M11,U1_M11,ZSPAN_M11,X0_M11,X2_M11,X1_M11
2023-03-11 09:00:00,,0812.2,4.99,0.00,21.9,20.2,00.0,30.7,23.7,22.8,0000.0,0000.38,0000.21,0000.12
2023-03-11 09:01:00,,0812.1,5.00,0.00,21.9,20.3,00.0,30.7,23.7,23.0,0000.0,0000.43,0000.21,0000.13
2023-03-11 09:02:00,,0812.0,5.00,0.00,21.9,20.3,00.0,30.7,23.7,23.1,0000.0,0000.50,0000.22,0000.13
2023-03-11 09:03:00,,0812.0,5.00,0.00,21.9,20.3,00.0,30.7,23.7,23.1,0000.0,0000.52,0000.22,0000.12
2023-03-11 09:04:00,,0811.9,5.00,0.00,21.9,20.4,00.0,30.7,23.7,23.1,0000.0,0000.50,0000.22,0000.12
2023-03-11 09:05:00,,0811.8,5.00,0.00,21.9,20.4,00.0,30.7,23.7,23.1,0000.0,0000.45,0000.21,0000.12
2023-03-11 09:06:00,,0811.9,4.99,0.00,21.9,20.4,00.0,30.7,23.7,23.0,0000.0,0000.40,0000.18,0000.11
2023-03-11 09:07:00,,0811.9,4.99,0.00,21.9,20.4,00.0,30.7,23.7,22.8,0000.0,0000.40,0000.18,0000.11
2023-03-11 09:08:00,,0811.9,4.99,0.00,21.9,20.4,00.0,30.7,23.8,22.8,0000.0,0000.45,0000.20,0000.12
2023-03-11 09:09:00,,0811.9,5.01,0.00,21.9,20.4,00.0,30.7,23.7,22.9,0000.0,0000.47,0000.22,0000.13
2023-03-11 09:10:00,,0811.9,5.00,0.00,21.9,20.4,00.0,30.7,23.8,23.1,0000.0,0000.49,0000.22,0000.12
2023-03-11 09:11:00,,0811.9,5.00,0.00,21.9,20.4,00.0,30.7,23.8,23.2,0000.0,0000.50,0000.23,0000.13
2023-03-11 09:12:00,,0811.8,5.00,0.00,21.9,20.4,00.0,30.7,23.8,23.2,0000.0,0000.46,0000.23,0000.12
2023-03-11 09:13:00,,0811.9,5.00,0.00,21.9,20.4,00.0,30.7,23.7,23.2,0000.0,0000.38,0000.22,0000.13
2023-03-11 09:14:00,,0812.0,4.99,0.00,21.9,20.4,00.0,30.7,23.7,23.2,0000.0,0000.35,0000.21,0000.12
2023-03-11 09:15:00,,0812.0,5.00,0.00,21.9,20.4,00.0,30.7,23.7,23.1,0000.0,0000.34,0000.20,0000.12
2023-03-11 09:16:00,,0812.0,5.00,0.00,21.9,20.4,00.0,30.7,23.7,23.1,0000.0,0000.33,0000.20,0000.12
2023-03-11 09:17:00,,0812.0,5.01,0.00,21.9,20.4,00.0,30.7,23.7,23.2,0000.0,0000.33,0000.20,0000.12
2023-03-11 09:18:00,,0812.0,5.00,0.00,21.9,20.4,00.0,30.7,23.7,23.2,0000.0,0000.34,0000.20,0000.12
2023-03-11 09:19:00,,0812.0,5.00,0.00,21.9,20.4,00.0,30.7,23.7,23.3,0000.0,0000.34,0000.19,0000.11
2023-03-11 09:20:00,,0811.9,5.01,0.00,21.9,20.4,00.0,30.7,23.7,23.3,0000.0,0000.33,0000.18,0000.11
2023-03-11 09:21:00,,0811.8,5.00,0.00,21.9,20.5,00.0,30.7,23.7,23.3,0000.0,0000.31,0000.18,0000.11
2023-03-11 09:22:00,,0811.8,5.01,0.00,21.9,20.5,00.0,30.7,23.7,23.4,0000.0,0000.36,0000.19,0000.11
2023-03-11 09:23:00,,0811.8,5.00,0.00,21.9,20.4,00.0,30.7,23.7,23.4,0000.0,0000.43,0000.21,0000.11
2023-03-11 09:24:00,,0811.8,5.00,0.00,21.9,20.4,00.0,30.7,23.7,23.4,0000.0,0000.53,0000.24,0000.11
2023-03-11 09:25:00,,0811.8,5.00,0.00,21.9,20.4,00.0,30.7,23.7,23.4,0000.0,0000.58,0000.25,0000.11
2023-03-11 09:26:00,,0811.7,4.99,0.00,21.9,20.4,00.0,30.7,23.7,23.5,0000.0,0000.60,0000.26,0000.11
2023-03-11 09:27:00,,0811.7,5.00,0.00,21.9,20.4,00.0,30.7,23.8,23.5,0000.0,0000.66,0000.29,0000.11
2023-03-11 09:28:00,,0811.7,5.01,0.00,21.9,20.4,00.0,30.7,23.8,23.4,0000.0,0000.67,0000.29,0000.11
2023-03-11 09:29:00,,0811.8,5.00,0.00,21.9,20.4,00.0,30.7,23.8,23.4,0000.0,0000.69,0000.30,0000.11
2023-03-11 09:30:00,,0811.8,5.01,0.00,21.9,20.4,00.0,30.7,23.8,23.5,0000.0,0001.24,0000.29,0000.12
2023-03-11 09:31:00,,0811.8,5.00,0.00,21.9,20.4,00.0,30.7,23.8,23.5,0000.0,0001.57,0000.30,0000.11
2023-03-11 09:32:00,,0811.8,5.00,0.00,21.9,20.5,00.0,30.7,23.8,23.5,0000.0,0001.64,0000.34,0000.11
2023-03-11 09:33:00,,0811.9,5.00,0.00,21.9,20.5,00.0,30.7,23.8,23.5,0000.0,0001.56,0000.32,0000.11
2023-03-11 09:34:00,,0811.9,5.00,0.00,21.9,20.4,00.0,30.7,23.8,23.4,0000.0,0001.51,0000.30,0000.11
2023-03-11 09:35:00,,0811.9,5.00,0.00,21.9,20.4,00.0,30.7,23.7,23.3,0000.0,0001.44,0000.28,0000.11
2023-03-11 09:36:00,,0811.9,5.00,0.00,21.9,20.7,00.0,30.7,23.8,23.2,0000.0,0001.39,0000.27,0000.11
2023-03-11 09:37:00,,0811.8,5.01,0.00,22.0,21.7,00.0,30.7,24.0,23.2,0000.0,0001.36,0000.26,0000.11
2023-03-11 09:38:00,,0811.8,5.01,0.00,22.2,22.7,00.0,30.7,24.3,23.1,0000.0,0001.31,0000.24,0000.11
2023-03-11 09:39:00,,0811.8,4.98,0.00,22.3,23.2,00.0,30.8,24.4,23.0,0000.0,0001.33,0000.25,0000.11
2023-03-11 09:40:00,,0811.7,5.02,0.00,22.3,22.7,00.0,30.8,24.4,23.0,0000.0,0001.35,0000.25,0000.12
2023-03-11 09:41:00,,0811.7,5.00,0.00,22.4,22.3,00.0,30.9,24.4,23.0,0000.0,0000.85,0000.27,0000.12
2023-03-11 09:42:00,,0811.7,4.98,0.00,22.4,22.0,00.0,30.9,24.3,23.0,0000.0,0000.49,0000.26,0000.12
2023-03-11 09:43:00,,0811.6,5.00,0.00,22.4,21.7,00.0,30.9,24.3,23.0,0000.0,0000.43,0000.24,0000.12
2023-03-11 09:44:00,,0811.6,5.01,0.00,22.4,21.4,00.0,30.9,24.3,23.0,0000.0,0001.14,0000.25,0000.13
2023-03-11 09:45:00,,0811.6,5.00,0.00,22.4,21.3,00.0,31.0,24.2,22.9,0000.0,0001.65,0000.26,0000.12
2023-03-11 09:46:00,,0811.6,5.00,0.00,22.4,21.2,00.0,31.0,24.2,22.7,0000.0,0001.66,0000.26,0000.12
2023-03-11 09:47:00,,0811.6,5.00,0.00,22.3,21.0,00.0,31.0,24.1,22.4,0000.0,0001.72,0000.28,0000.13
2023-03-11 09:48:00,,0811.6,5.01,0.00,22.3,20.9,00.0,31.0,24.1,22.5,0000.0,0001.77,0000.30,0000.13
2023-03-11 09:49:00,,0811.6,5.00,0.00,22.3,20.9,00.0,31.0,24.1,22.6,0000.0,0001.76,0000.29,0000.13
2023-03-11 09:50:00,,0811.7,4.99,0.00,22.3,20.9,00.0,31.0,24.1,22.7,0000.0,0001.78,0000.30,0000.13
2023-03-11 09:51:00,,0811.8,5.00,0.00,22.3,20.9,00.0,31.0,24.1,22.8,0000.0,0001.77,0000.30,0000.13
2023-03-11 09:52:00,,0811.9,4.99,0.00,22.3,20.9,00.0,31.0,24.1,22.8,0000.0,0001.70,0000.27,0000.13
2023-03-11 09:53:00,,0811.8,4.99,0.00,22.3,20.8,00.0,31.0,24.1,22.8,0000.0,0001.74,0000.30,0000.13
2023-03-11 09:54:00,,0811.8,5.00,0.00,22.3,20.8,00.0,31.0,24.1,22.6,0000.0,0001.77,0000.29,0000.13
2023-03-11 09:55:00,,0812.0,5.00,0.00,22.3,20.8,00.0,31.0,24.1,22.7,0000.0,0001.19,0000.28,0000.13
2023-03-11 09:56:00,,0812.1,5.00,0.00,22.3,20.8,00.0,31.0,24.1,23.0,0000.0,0000.57,0000.28,0000.14
2023-03-11 09:57:00,,0812.1,4.99,0.00,22.3,20.7,00.0,31.0,24.1,23.1,0000.0,0000.56,0000.27,0000.14
2023-03-11 09:58:00,,0812.1,5.00,0.00,22.2,20.7,00.0,31.0,24.1,23.0,0000.0,0000.50,0000.25,0000.14
2023-03-11 09:59:00,,0812.1,5.01,0.00,22.2,20.7,00.0,31.0,24.0,23.1,0000.0,0000.48,0000.24,0000.13
